This demonstration page uses our WeatherBlox Daily Observations layout. Learn more.

Left ArrowRight Arrow

40.92501, -98.34201

Hourly Observations for September 23, 2022

Temp ( °F °C ) Dew Point ( °F °C ) Humidity (%) Winds ( mph kmh ) Pressure ( in mb ) Visibility ( mi km ) Precip ( " mm )
12:53 am 00:53 Cloudy 54 12.2 47 8.3 77 77 S 8 13 30.16 1022 10 16 0.00 0.00
1:53 am 01:53 Cloudy 55 12.8 47 8.3 74 74 S 8 13 30.13 1020 10 16 0.00 0.00
2:53 am 02:53 Cloudy 55 12.8 47 8.3 74 74 S 13 20 30.11 1020 10 16 0.00 0.00
3:53 am 03:53 Cloudy 54 12.2 48 8.9 80 80 SSE 14 22 30.08 1019 10 16 0.00 0.00
4:14 am 04:14 Cloudy 54 12.2 48 8.9 80 80 S 12 19 30.06 1018 10 16 0.00 0.00
4:53 am 04:53 Cloudy 54 12.2 48 8.9 80 80 SSE 10 17 30.07 1018 10 16 0.00 0.00
5:53 am 05:53 Cloudy 54 12.2 48 8.9 80 80 S 7 11 30.08 1019 10 16 0.00 0.00
6:53 am 06:53 Cloudy 53 11.7 47 8.3 80 80 SSE 12 19 30.04 1017 10 16 0.00 0.00
7:53 am 07:53 Cloudy 54 12.2 48 8.9 80 80 S 8 13 30.05 1018 10 16 0.00 0.00
8:53 am 08:53 Cloudy 55 12.8 48 8.9 77 77 S 15 24 30.04 1017 10 16 0.00 0.00
9:00 am 09:00 Cloudy 56 13.3 49 9.4 77 77 S 10 17 30.02 1016 10 16 0.00 0.00
9:07 am 09:07 Cloudy 56 13.3 48 8.9 75 75 S 13 20 30.02 1016 10 16 0.00 0.00
9:53 am 09:53 Cloudy 57 13.9 49 9.4 74 74 S 17 28 30.01 1016 10 16 0.00 0.00
10:53 am 10:53 Partly Cloudy 62 16.7 50 10 65 65 SSW 12 19 30.00 1016 10 16 0.00 0.00
11:53 am 11:53 Mostly Cloudy 64 17.8 51 10.6 63 63 SW 15 24 29.98 1015 10 16 0.00 0.00
12:53 pm 12:53 Mostly Cloudy 66 18.9 52 11.1 61 61 SW 16 26 29.96 1014 10 16 0.00 0.00
1:53 pm 13:53 Sunny 70 21.1 52 11.1 53 53 SW 13 20 29.93 1013 10 16 0.00 0.00
2:53 pm 14:53 Sunny 73 22.8 52 11.1 48 48 WSW 10 17 29.90 1012 10 16 0.00 0.00
3:53 pm 15:53 Sunny 75 23.9 52 11.1 45 45 WSW 13 20 29.88 1012 10 16 0.00 0.00
4:53 pm 16:53 Sunny 77 25 52 11.1 42 42 SW 15 24 29.85 1011 10 16 0.00 0.00
5:53 pm 17:53 Sunny 77 25 53 11.7 43 43 SW 15 24 29.84 1010 10 16 0.00 0.00
6:53 pm 18:53 Sunny 75 23.9 53 11.7 46 46 SSW 10 17 29.85 1011 10 16 0.00 0.00
7:53 pm 19:53 Clear 69 20.6 53 11.7 57 57 WNW 6 9 29.88 1012 10 16 0.00 0.00
8:53 pm 20:53 Clear 63 17.2 53 11.7 70 70 SW 8 13 29.91 1013 10 16 0.00 0.00
9:53 pm 21:53 Clear 62 16.7 54 12.2 75 75 WSW 8 13 29.93 1013 10 16 0.00 0.00
10:53 pm 22:53 Clear 61 16.1 54 12.2 78 78 SW 7 11 29.93 1014 10 16 0.00 0.00
11:53 pm 23:53 Clear 62 16.7 54 12.2 75 75 SW 9 15 29.93 1014 10 16 0.00 0.00

Powered by AerisWeather